SWR7PE LSZH-EDDM

Flight info

Callsign SWR7PE
Flight time N/A
Altitude 19000
Route DEGES Z6 NUNRI T103 BETOS BETOS1B
Aircraft A321/M-SDE3FGHIRWY/LB1

Departure

Time 2026-05-05 19:21
Airport Zürich Airport (LSZH)

Arrival

Time N/A
Airport Munich Airport (EDDM)
Time Latitude Longitude Altitude Speed Heading
2026-05-05 18:48 47.45435 8.55748 1414 ft 0 kts 185°
2026-05-05 19:05 47.45452 8.55751 1414 ft 4 kts 191°
2026-05-05 19:05 47.45478 8.55756 1413 ft 4 kts 162°
2026-05-05 19:06 47.45498 8.55742 1411 ft 4 kts 136°
2026-05-05 19:06 47.45511 8.55710 1410 ft 4 kts 99°
2026-05-05 19:06 47.45512 8.55700 1409 ft 0 kts 95°
2026-05-05 19:08 47.45512 8.55701 1407 ft 1 kts 95°
2026-05-05 19:08 47.45505 8.55793 1410 ft 16 kts 96°
2026-05-05 19:09 47.45495 8.55939 1407 ft 5 kts 96°
2026-05-05 19:09 47.45495 8.55941 1407 ft 0 kts 96°
2026-05-05 19:09 47.45494 8.55948 1407 ft 1 kts 96°
2026-05-05 19:10 47.45494 8.55954 1409 ft 1 kts 96°
2026-05-05 19:10 47.45490 8.56004 1410 ft 6 kts 96°
2026-05-05 19:10 47.45485 8.56065 1407 ft 6 kts 97°
2026-05-05 19:10 47.45481 8.56119 1407 ft 5 kts 94°
2026-05-05 19:11 47.45480 8.56166 1407 ft 6 kts 96°
2026-05-05 19:11 47.45504 8.56238 1412 ft 8 kts 25°
2026-05-05 19:11 47.45543 8.56252 1414 ft 4 kts
2026-05-05 19:11 47.45550 8.56253 1414 ft 0 kts
2026-05-05 19:12 47.45564 8.56255 1415 ft 0 kts
2026-05-05 19:13 47.45587 8.56259 1412 ft 6 kts
2026-05-05 19:13 47.45621 8.56264 1416 ft 3 kts
2026-05-05 19:13 47.45628 8.56265 1415 ft 0 kts
2026-05-05 19:14 47.45633 8.56266 1414 ft 4 kts
2026-05-05 19:15 47.45705 8.56276 1415 ft 16 kts
2026-05-05 19:15 47.45828 8.56296 1415 ft 18 kts
2026-05-05 19:15 47.45944 8.56314 1413 ft 4 kts
2026-05-05 19:15 47.45945 8.56314 1413 ft 0 kts
2026-05-05 19:16 47.45946 8.56314 1413 ft 1 kts
2026-05-05 19:16 47.45955 8.56315 1415 ft 2 kts
2026-05-05 19:17 47.45972 8.56318 1412 ft 3 kts
2026-05-05 19:17 47.45995 8.56321 1413 ft 4 kts
2026-05-05 19:17 47.46022 8.56326 1416 ft 4 kts
2026-05-05 19:17 47.46023 8.56326 1416 ft 0 kts
2026-05-05 19:19 47.46029 8.56327 1416 ft 3 kts
2026-05-05 19:19 47.46093 8.56337 1410 ft 15 kts
2026-05-05 19:19 47.46199 8.56340 1410 ft 9 kts 338°
2026-05-05 19:19 47.46231 8.56306 1411 ft 0 kts 318°
2026-05-05 19:20 47.46250 8.56281 1414 ft 15 kts 317°
2026-05-05 19:21 47.46538 8.55886 1398 ft 94 kts 317°
2026-05-05 19:21 47.47178 8.55011 1382 ft 153 kts 317°
2026-05-05 19:21 47.48012 8.53840 1765 ft 166 kts 314°
2026-05-05 19:21 47.48855 8.52675 2503 ft 165 kts 315°
2026-05-05 19:22 47.49791 8.51588 2967 ft 183 kts 328°
2026-05-05 19:22 47.50974 8.50647 3248 ft 204 kts 327°
2026-05-05 19:22 47.52224 8.49497 3588 ft 216 kts 315°
2026-05-05 19:22 47.53134 8.47754 4308 ft 213 kts 292°
2026-05-05 19:23 47.53519 8.45671 5143 ft 209 kts 270°
2026-05-05 19:23 47.53340 8.43562 5972 ft 208 kts 250°
2026-05-05 19:23 47.52740 8.41618 6776 ft 207 kts 244°
2026-05-05 19:23 47.52118 8.39688 7524 ft 209 kts 244°
2026-05-05 19:24 47.51271 8.37925 8116 ft 221 kts 221°
2026-05-05 19:24 47.49800 8.36944 8441 ft 251 kts 189°
2026-05-05 19:24 47.48028 8.37473 8862 ft 277 kts 153°
2026-05-05 19:24 47.46661 8.39563 9548 ft 294 kts 120°
2026-05-05 19:25 47.46028 8.42486 10213 ft 308 kts 102°
2026-05-05 19:25 47.45787 8.45767 10395 ft 333 kts 98°
2026-05-05 19:25 47.45572 8.49286 10550 ft 355 kts 97°
2026-05-05 19:25 47.45359 8.52986 11014 ft 366 kts 97°
2026-05-05 19:26 47.45146 8.56759 11654 ft 371 kts 97°
2026-05-05 19:26 47.44931 8.60585 12313 ft 375 kts 97°
2026-05-05 19:26 47.44711 8.64447 12938 ft 380 kts 97°
2026-05-05 19:26 47.44481 8.68359 13590 ft 384 kts 97°
2026-05-05 19:27 47.44245 8.72308 14198 ft 388 kts 97°
2026-05-05 19:27 47.44004 8.76295 14804 ft 391 kts 97°
2026-05-05 19:27 47.43760 8.80304 15413 ft 392 kts 97°
2026-05-05 19:27 47.43514 8.84348 15993 ft 394 kts 97°
2026-05-05 19:28 47.43269 8.88367 16602 ft 396 kts 97°
2026-05-05 19:28 47.43016 8.92428 17165 ft 399 kts 97°
2026-05-05 19:28 47.42763 8.96462 17731 ft 401 kts 97°
2026-05-05 19:28 47.42503 9.00574 18265 ft 403 kts 98°
2026-05-05 19:29 47.42235 9.04707 18698 ft 406 kts 98°
2026-05-05 19:29 47.41964 9.08855 18858 ft 407 kts 98°
2026-05-05 19:29 47.41698 9.13077 18899 ft 417 kts 96°
2026-05-05 19:29 47.41755 9.17389 18899 ft 423 kts 85°
2026-05-05 19:30 47.42338 9.21661 18894 ft 427 kts 75°
2026-05-05 19:30 47.43438 9.25751 18902 ft 430 kts 64°
2026-05-05 19:30 47.44909 9.29580 18896 ft 429 kts 60°
2026-05-05 19:30 47.46406 9.33399 18894 ft 429 kts 61°
2026-05-05 19:31 47.47892 9.37215 18896 ft 429 kts 61°
2026-05-05 19:31 47.49372 9.41044 18919 ft 428 kts 61°
2026-05-05 19:31 47.50842 9.44866 18921 ft 428 kts 61°
2026-05-05 19:31 47.52316 9.48702 18920 ft 428 kts 61°
2026-05-05 19:32 47.53789 9.52538 18922 ft 428 kts 61°
2026-05-05 19:32 47.55258 9.56372 18921 ft 428 kts 61°
2026-05-05 19:32 47.56727 9.60201 18919 ft 428 kts 61°
2026-05-05 19:32 47.58027 9.64160 18913 ft 427 kts 70°
2026-05-05 19:33 47.58868 9.68359 18893 ft 425 kts 80°
2026-05-05 19:33 47.59289 9.72685 18888 ft 424 kts 85°
2026-05-05 19:33 47.59641 9.77028 18880 ft 425 kts 85°
2026-05-05 19:33 47.59997 9.81378 18892 ft 426 kts 85°
2026-05-05 19:34 47.60355 9.85727 18890 ft 426 kts 85°
2026-05-05 19:34 47.60713 9.90080 18889 ft 426 kts 85°
2026-05-05 19:34 47.61069 9.94434 18889 ft 426 kts 85°
2026-05-05 19:35 47.61739 10.02775 18889 ft 426 kts 85°